Location: Roswell
(33.3943°N, 104.5230°W)
Time: 14:59:28
(UTC+00:00)

Vanguard 2 Rocket - Pass Details

Date: 14 November 2024
Orbit: 554 x 3296 km, 32.9° (Epoch: 30 November)

Event Time Altitude Azimuth Distance (km) Brightness Sun altitude
Rises 10:12:40 0° 179° (S) 4,519 10.5 -41.0°
Reaches altitude 10° 10:17:27 10° 155° (SSE) 4,081 10.4 -40.0°
Maximum altitude 10:22:53 15° 126° (SE) 4,273 10.7 -38.9°
Drops below altitude 10° 10:29:34 10° 99° (E) 5,245 11.5 -37.5°
Sets 10:37:28 0° 80° (E) 6,804 12.3 -35.8°
